Wildwood, NJ

12:39 AM EDT on March 23, 2017 (GMT -0400)
Cape May County

Weather History for KWWD - September, 2012

Change the Weather History Date:

Wednesday, September 26, 2012

  Actual Average Record
Temperature  
Mean Temperature 73 °F -  
Max Temperature 80 °F 70 °F 84 °F (2007)
Min Temperature 66 °F 55 °F 48 °F (1996)
Cooling Degree Days 8    
Growing Degree Days 23 (Base 50)    
Moisture  
Dew Point 61 °F    
Average Humidity 68    
Maximum Humidity 83    
Minimum Humidity 51    
Precipitation  
Precipitation 0.00 in - - ()
Sea Level Pressure  
Sea Level Pressure 30.09 in    
Wind  
Wind Speed 12 mph (SSW)    
Max Wind Speed 18 mph    
Max Gust Speed 24 mph    
Visibility 10 miles    
Events      
Averages and records for this station are not official NWS values.
T = Trace of Precipitation, MM = Missing Value Source: NWS Daily Summary

Daily Weather History Graph

Daily Weather History Graph

Search for Another Location

Airport or City:

Trip Planner

Search our weather history database for the weather conditions in past years. The results will help you decide how hot, cold, wet, or windy it might be!

Date:

Astronomy

Sep. 26, 2012 Rise Set
Actual Time 6:51 AM EDT 6:49 PM EDT
Civil Twilight 6:24 AM EDT 7:16 PM EDT
Nautical Twilight 5:53 AM EDT 7:47 PM EDT
Astronomical Twilight 5:22 AM EDT 8:18 PM EDT
Moon 4:46 PM EDT (9/26) 3:16 AM EDT (9/26)
Length of Visible Light 12h 51m
Length of Day
11h 58m
Waxing Gibbous, 88% of the Moon is Illuminated
Sep 26
Waxing Gibbous
Sep 29
Full
Oct 8
Last Quarter
Oct 15
New
Oct 21
First Quarter

Hourly Weather History & Observations

Time (EDT) Temp. Heat Index Dew Point Humidity Pressure Visibility Wind Dir Wind Speed Gust Speed Precip Events Conditions
12:35 AM 68.0 °F - 53.6 °F 60% - 10.0 mi South 10.4 mph - N/A   Partly Cloudy
1:15 AM 66.2 °F - 55.4 °F 68% - 10.0 mi South 12.7 mph - N/A   Clear
1:35 AM 68.0 °F - 55.4 °F 64% - 10.0 mi South 12.7 mph - N/A   Clear
1:55 AM 66.2 °F - 57.2 °F 73% - 10.0 mi South 11.5 mph 17.3 mph N/A   Partly Cloudy
2:15 AM 66.2 °F - 57.2 °F 73% - 10.0 mi South 11.5 mph 20.7 mph N/A   Clear
2:35 AM 66.2 °F - 55.4 °F 68% - 10.0 mi South 13.8 mph - N/A   Clear
2:55 AM 66.2 °F - 57.2 °F 73% - 10.0 mi SSW 12.7 mph - N/A   Clear
3:15 AM 68.0 °F - 57.2 °F 68% - 10.0 mi South 13.8 mph 20.7 mph N/A   Clear
3:35 AM 68.0 °F - 57.2 °F 68% - 10.0 mi SSW 13.8 mph 19.6 mph N/A   Partly Cloudy
3:55 AM 68.0 °F - 57.2 °F 68% - 10.0 mi SSW 12.7 mph 19.6 mph N/A   Partly Cloudy
4:15 AM 68.0 °F - 57.2 °F 68% - 10.0 mi SSW 13.8 mph 18.4 mph N/A   Partly Cloudy
4:35 AM 68.0 °F - 57.2 °F 68% - 10.0 mi SSW 13.8 mph - N/A   Clear
4:55 AM 66.2 °F - 57.2 °F 73% - 10.0 mi SSW 12.7 mph 19.6 mph N/A   Partly Cloudy
5:15 AM 66.2 °F - 57.2 °F 73% - 10.0 mi SSW 15.0 mph 19.6 mph N/A   Mostly Cloudy
5:35 AM 68.0 °F - 57.2 °F 68% - 10.0 mi SSW 11.5 mph - N/A   Overcast
5:55 AM 68.0 °F - 57.2 °F 68% - 10.0 mi SSW 12.7 mph - N/A   Overcast
6:15 AM 66.2 °F - 57.2 °F 73% - 10.0 mi SSW 11.5 mph 18.4 mph N/A   Overcast
6:35 AM 66.2 °F - 57.2 °F 73% - 10.0 mi South 15.0 mph 19.6 mph N/A   Overcast
6:55 AM 66.2 °F - 57.2 °F 73% - 10.0 mi SSW 12.7 mph - N/A   Scattered Clouds
7:15 AM 66.2 °F - 57.2 °F 73% - 10.0 mi SSW 10.4 mph - N/A   Clear
7:35 AM 66.2 °F - 59.0 °F 78% - 10.0 mi SSW 12.7 mph - N/A   Clear
8:35 AM 69.8 °F - 60.8 °F 73% - 10.0 mi SSW 15.0 mph - N/A   Partly Cloudy
8:55 AM 69.8 °F - 59.0 °F 68% - 10.0 mi SSW 13.8 mph 21.9 mph N/A   Scattered Clouds
9:15 AM 69.8 °F - 60.8 °F 73% - 10.0 mi SSW 12.7 mph 21.9 mph N/A   Mostly Cloudy
9:35 AM 69.8 °F - 60.8 °F 73% - 10.0 mi SSW 11.5 mph - N/A   Overcast
9:55 AM 71.6 °F - 59.0 °F 64% - 10.0 mi SSW 13.8 mph 23.0 mph N/A   Overcast
10:15 AM 71.6 °F - 59.0 °F 64% - 10.0 mi SW 16.1 mph 24.2 mph N/A   Mostly Cloudy
10:35 AM 71.6 °F - 60.8 °F 69% - 10.0 mi SW 17.3 mph 24.2 mph N/A   Partly Cloudy
10:55 AM 73.4 °F - 60.8 °F 65% - 10.0 mi SSW 13.8 mph - N/A   Clear
11:15 AM 73.4 °F - 60.8 °F 65% - 10.0 mi SSW 17.3 mph 23.0 mph N/A   Clear
11:35 AM 75.2 °F - 60.8 °F 61% - 10.0 mi SW 17.3 mph 23.0 mph N/A   Clear
11:55 AM 75.2 °F - 60.8 °F 61% - 10.0 mi SW 16.1 mph 23.0 mph N/A   Clear
12:15 PM 77.0 °F - 60.8 °F 57% - 10.0 mi SW 16.1 mph 21.9 mph N/A   Clear
12:35 PM 77.0 °F - 60.8 °F 57% - 10.0 mi SW 13.8 mph 23.0 mph N/A   Clear
12:55 PM 77.0 °F - 60.8 °F 57% - 10.0 mi SW 11.5 mph - N/A   Clear
1:15 PM 78.8 °F - 60.8 °F 54% - - SW 12.7 mph - N/A   Partly Cloudy
1:35 PM 78.8 °F - 60.8 °F 54% - - SSW 18.4 mph 23.0 mph N/A   Partly Cloudy
1:55 PM 80.6 °F 81.5 °F 60.8 °F 51% - - SW 13.8 mph - N/A   Partly Cloudy
2:15 PM 80.6 °F 81.5 °F 60.8 °F 51% - - SSW 12.7 mph - N/A   Partly Cloudy
2:35 PM 80.6 °F 81.8 °F 62.6 °F 54% 30.08 in - South 12.7 mph - N/A   Clear
2:55 PM 80.6 °F 81.8 °F 62.6 °F 54% 30.08 in - South 10.4 mph - N/A   Clear
3:15 PM 78.8 °F - 64.4 °F 61% 30.07 in - South 13.8 mph - N/A   Clear
3:35 PM 78.8 °F - 64.4 °F 61% 30.07 in - South 12.7 mph - N/A   Clear
3:55 PM 78.8 °F - 64.4 °F 61% 30.07 in - South 12.7 mph 17.3 mph N/A   Clear
4:15 PM 78.8 °F - 64.4 °F 61% 30.07 in - South 12.7 mph - N/A   Clear
4:35 PM 77.0 °F - 64.4 °F 65% 30.07 in - SSW 11.5 mph - N/A   Clear
4:55 PM 77.0 °F - 64.4 °F 65% 30.07 in 10.0 mi South 11.5 mph - N/A   Clear
5:15 PM 75.2 °F - 64.4 °F 69% 30.07 in 10.0 mi South 12.7 mph - N/A   Clear
5:35 PM 75.2 °F - 64.4 °F 69% 30.07 in 10.0 mi South 11.5 mph - N/A   Clear
5:55 PM 73.4 °F - 64.4 °F 73% 30.07 in 10.0 mi South 10.4 mph - N/A   Clear
6:15 PM 73.4 °F - 64.4 °F 73% 30.08 in 10.0 mi SSW 9.2 mph - N/A   Clear
6:35 PM 71.6 °F - 64.4 °F 78% 30.08 in 10.0 mi SSW 6.9 mph - N/A   Clear
6:55 PM 71.6 °F - 64.4 °F 78% 30.09 in 10.0 mi SSW 9.2 mph - N/A   Clear
7:15 PM 71.6 °F - 62.6 °F 73% 30.09 in 10.0 mi SSW 8.1 mph - N/A   Clear
7:35 PM 71.6 °F - 62.6 °F 73% 30.10 in 10.0 mi SSW 9.2 mph - N/A   Clear
7:55 PM 71.6 °F - 62.6 °F 73% 30.10 in 10.0 mi SSW 10.4 mph - N/A   Clear
8:15 PM 71.6 °F - 60.8 °F 69% 30.10 in 10.0 mi SW 9.2 mph - N/A   Clear
8:35 PM 71.6 °F - 60.8 °F 69% 30.11 in 10.0 mi SSW 6.9 mph - N/A   Clear
8:55 PM 69.8 °F - 62.6 °F 78% 30.11 in 10.0 mi South 8.1 mph - N/A   Clear
9:35 PM 69.8 °F - 64.4 °F 83% 30.11 in 10.0 mi SSW 8.1 mph - N/A   Clear
9:55 PM 69.8 °F - 64.4 °F 83% 30.11 in 10.0 mi SW 10.4 mph - N/A   Clear
10:15 PM 69.8 °F - 62.6 °F 78% 30.11 in 10.0 mi SSW 10.4 mph - N/A   Clear
10:35 PM 71.6 °F - 62.6 °F 73% 30.11 in 10.0 mi SSW 11.5 mph - N/A   Clear
10:55 PM 71.6 °F - 62.6 °F 73% 30.11 in 10.0 mi SSW 13.8 mph 18.4 mph N/A   Clear
11:15 PM 71.6 °F - 62.6 °F 73% 30.10 in 10.0 mi SSW 13.8 mph 19.6 mph N/A   Clear
11:35 PM 71.6 °F - 62.6 °F 73% 30.09 in 10.0 mi SW 13.8 mph - N/A   Clear
11:55 PM 71.6 °F - 62.6 °F 73% 30.09 in 10.0 mi SW 15.0 mph - N/A   Clear